Location: Cotdoussan
(43.0366°N, 0.0068°E)
Time: 03:43:56
(UTC+00:00)

Daily predictions for brighter satellites

Satellite Brightness Start Highest point End
(mag) Time Altitude Azimuth Time Altitude Azimuth Time Altitude Azimuth
SL-16 R/B 4.3 00:08:03 10° NNW 00:09:54 21° NW 00:09:54 21° NW
COSMOS 2455 4.3 00:18:20 32° NNE 00:18:20 32° NNE 00:21:31 10° NNE
NOSS 3-1 (C) 4.3 00:41:14 10° NW 00:47:20 63° NNW 00:47:20 63° NNW
ADEOS II 4.4 00:58:23 10° NE 01:00:27 15° ENE 01:00:27 15° ENE
Lacrosse 5 rocket 4.2 01:17:01 17° N 01:17:32 17° NNE 01:20:37 10° ENE
USA 234 3.6 01:12:21 10° NE 01:17:35 60° NE 01:17:35 60° NE
SL-16 R/B 3.1 01:23:17 55° NNE 01:23:17 55° NNE 01:28:27 10° N
CZ-2D R/B 3.3 01:24:20 10° NNE 01:27:57 41° NE 01:27:57 41° NE
Cosmos 2263 Rocket 3.6 01:38:15 30° NNW 01:38:15 30° NNW 01:41:44 10° N
Resurs 1-4 Rocket 3.1 01:43:43 10° NNE 01:47:14 43° N 01:47:14 43° N
Cosmos 1844 Rocket 3.3 01:55:14 52° NE 01:55:14 52° NE 01:59:29 10° NNE
NOSS 3-1 (A) 4.4 02:01:27 10° NW 02:07:14 50° WNW 02:07:14 50° WNW
SL-4 R/B 3.7 02:11:57 37° N 02:11:57 37° N 02:15:40 10° NE
Cosmos 2278 Rocket 4.4 02:09:19 14° ESE 02:11:18 17° E 02:14:44 10° ENE
Cosmos 2366 rocket 4.4 02:09:50 10° N 02:15:54 56° ENE 02:17:31 44° SE
USA 305 4.3 02:26:53 37° ENE 02:26:53 37° ENE 02:29:34 10° NE
ARIANE 5 R/B 4.1 02:20:43 10° NE 02:25:18 30° E 02:26:51 26° SE
Cosmos 1844 3.7 02:27:27 77° NNW 02:27:27 77° NNW 02:32:56 10° NNE
IRS-1D 3.6 02:27:18 10° NNE 02:31:57 75° NNE 02:31:57 75° NNE
ARGOS Delta rocket 4.2 02:28:18 10° NNE 02:31:59 55° NE 02:31:59 55° NE
Cosmos 1777 Rocket 4.3 02:33:01 58° ESE 02:33:07 58° ESE 02:38:15 10° NNE
Cosmos 2341 Rocket 4.0 02:28:56 10° NNW 02:35:02 66° W 02:35:02 66° W
CBERS-1 4.0 02:32:31 10° NNE 02:37:31 82° ENE 02:37:31 82° ENE
ADEOS II 2.2 02:36:34 10° N 02:41:23 63° NW 02:41:23 63° NW
Cosmos 1975 4.3 02:38:05 10° N 02:41:49 34° ENE 02:42:37 31° ESE
USA 306 3.6 02:43:28 53° NE 02:43:28 53° NE 02:46:49 10° NE
Cosmos 2181 Rocket 3.9 02:44:17 66° SW 02:45:04 74° W 02:51:25 10° N
SJ 16-02 2.4 02:48:53 37° ESE 02:49:26 38° ESE 02:53:32 10° NE
NOSS 2-2 (E) 4.5 02:46:54 10° NW 02:52:42 80° SW 03:00:47 10° SSE
BREEZE-M DEB (TANK) 3.7 02:47:04 10° WNW 02:53:26 48° N 02:56:06 10° E
Okean 1 4.0 02:55:20 50° N 02:55:20 50° N 02:58:26 10° N
USA 307 3.2 02:56:11 65° NNE 02:56:11 65° NNE 03:00:02 10° NE
Cosmos 773 Rocket 3.8 02:51:20 10° NNW 02:56:37 76° WSW 02:56:56 73° SW
Lacrosse 5 rocket 2.3 02:53:09 10° NW 02:57:35 52° NE 03:02:06 10° ESE
USA 234 4.3 02:55:37 10° NE 03:01:27 36° NNW 03:04:56 22° WNW
Cosmos 1238 Rocket 3.9 02:57:01 10° NNW 03:02:43 61° W 03:03:50 53° SW
SL-08 R/B 3.7 03:00:33 20° SSE 03:03:55 67° ENE 03:08:48 10° N
SL-16 R/B 4.1 03:08:21 19° WNW 03:08:21 19° WNW 03:11:03 10° NW
USA 308 3.1 03:08:00 60° NW 03:08:02 60° NNW 03:12:17 10° NE
CZ-2D R/B 3.8 03:05:29 10° NNW 03:09:16 20° WNW 03:09:16 20° WNW
ATLAS 5 CENTAUR R/B 4.0 03:11:28 10° NNW 03:16:27 33° NE 03:22:12 10° ESE
Okean 1-7 3.7 03:14:47 29° SSE 03:16:41 52° E 03:20:52 10° NNE
SL-8 Rocket 4.5 03:15:28 10° NNW 03:21:07 37° W 03:21:43 37° W
IRS-P3 4.1 03:16:55 10° N 03:22:14 67° WNW 03:23:53 43° SW
IDEFIX/ARIANE 42P 2.7 03:17:51 10° N 03:22:55 56° WNW 03:24:09 45° WSW
Cosmos 158 Rocket 4.4 03:20:03 10° NNW 03:24:59 59° ENE 03:29:47 10° SSE
Cosmos 1340 Rocket 4.4 03:22:29 10° NNW 03:24:15 22° NW 03:24:15 22° NW
Cosmos 1908 Rocket 3.5 03:21:42 10° N 03:26:07 86° E 03:28:57 22° S
Resurs 1-4 Rocket 4.1 03:25:49 10° NNW 03:28:01 13° WNW 03:28:19 13° WNW
BREEZE M DEB (TANK) 4.0 03:31:07 25° S 03:31:07 25° S 03:35:47 10° SSE
Cosmos 2082 Rocket 3.6 03:26:03 10° N 03:31:18 39° ENE 03:36:30 10° SE
BREEZE-M R/B 4.4 03:30:48 29° W 03:33:22 59° NNW 03:43:17 10° ENE
ADEOS Rocket 3.4 03:32:53 33° SW 03:34:53 42° W 03:41:04 10° NNW
CZ-2D R/B 3.3 03:31:42 10° N 03:35:45 80° WNW 03:37:06 41° SSW
Cosmos 1844 Rocket 4.2 03:36:53 18° WNW 03:38:23 20° NW 03:42:28 10° N
CZ-2C R/B 3.0 03:40:10 10° NNE 03:43:51 63° E 03:46:22 20° S
COSMOS 2406 3.1 03:40:49 10° NNW 03:46:32 84° WSW 03:52:10 10° SSE
Cosmos 923 Rocket 4.2 03:43:00 10° NNW 03:48:13 73° ENE 03:53:25 10° SSE
Cosmos 1703 Rocket 3.5 03:47:33 30° SSW 03:49:34 63° W 03:53:52 10° N
SL-4 R/B 4.0 03:47:29 10° WNW 03:51:42 29° N 03:55:51 10° ENE
Cosmos 1782 Rocket 3.5 03:49:00 10° N 03:53:29 89° WSW 03:57:57 10° S
Cosmos 2278 Rocket 2.2 03:51:11 24° SW 03:54:42 72° WNW 04:00:24 10° NNE
Spot 4 Rocket 4.0 03:51:05 10° N 03:56:13 67° WNW 04:00:02 18° SSW
Cosmos 2242 Rocket 3.8 03:54:49 28° SW 03:56:48 48° WNW 04:01:06 10° N
Okean 3 3.6 03:52:42 10° S 03:56:56 75° E 04:01:14 10° NNE
NOSS 3-3 (A) 3.9 03:54:04 21° SSW 03:58:02 88° SE 04:04:33 10° NE
NOSS 3-3 (C) 3.9 03:54:10 21° SSW 03:58:09 87° ESE 04:04:39 10° NE
Cosmos 1833 Rocket 2.6 03:53:45 10° NNW 03:59:23 70° WSW 04:04:59 10° SSE
USA 81 4.1 03:55:24 10° N 04:00:43 84° E 04:06:00 10° S
Cosmos 2239 Rocket 4.5 03:57:03 10° NNW 04:03:06 60° W 04:09:12 10° S
ARIANE 5 R/B 3.3 03:59:39 10° N 04:04:24 36° WNW 04:07:12 21° WSW
USA 305 4.3 04:02:57 16° WNW 04:05:33 29° NNW 04:09:21 10° NE
CZ-4B R/B 4.4 04:02:58 10° N 04:06:55 27° WNW 04:08:51 20° WSW
Cosmos 1821 Rocket 4.4 04:06:52 10° NNW 04:12:42 42° W 04:18:35 10° SSW
Cosmos 1356 Rocket 4.2 04:09:12 10° N 04:13:10 53° ENE 04:17:11 10° SSE
Abrixas rocket 1.6 04:13:33 23° NW 04:14:39 57° NNE 04:16:46 10° ESE
Cosmos 1300 Rocket 4.0 04:10:37 10° N 04:15:03 65° E 04:19:27 10° SSE
Cosmos 1898 Rocket 3.5 04:11:03 10° SSW 04:16:15 89° WNW 04:21:32 10° NNE
ERBS 2.7 04:15:35 23° WSW 04:17:20 48° NW 04:20:34 10° NE
Cosmos 1378 3.1 04:13:59 12° SSW 04:17:23 63° W 04:21:04 10° N
PSLV R/B 3.5 04:13:27 10° NNE 04:17:45 90° WNW 04:21:59 10° SSW
Cosmos 1975 4.3 04:15:16 10° NW 04:17:58 18° W 04:18:19 17° W
Landsat 5 4.0 04:18:10 10° SSE 04:22:29 68° ENE 04:26:57 10° N
Gbstr 26 Del rocket 3.4 04:18:17 17° WSW 04:22:43 78° NNW 04:27:21 10° NE
CZ-2C R/B 2.5 04:19:44 10° N 04:24:16 52° WNW 04:28:53 10° SSW
Cosmos 1339 Rocket 4.5 04:18:27 10° S 04:24:41 79° W 04:31:04 10° N
Cosmos 1937 Rocket 3.6 04:20:30 10° SSW 04:25:39 81° ESE 04:30:49 10° NNE
Cosmos 1535 Rocket 4.4 04:20:15 10° NNW 04:26:17 64° W 04:32:20 10° S
Meteor 1-12 Rocket 4.4 04:20:23 10° NNW 04:26:20 63° W 04:32:14 10° S
SJ 16-02 2.8 04:25:54 15° W 04:28:09 21° WNW 04:31:33 10° N
Cosmos 2112 Rocket 4.0 04:23:05 10° NNW 04:28:24 78° WSW 04:33:42 10° SSE
Cosmos 990 Rocket 4.1 04:23:47 10° SW 04:28:47 57° WNW 04:33:56 10° NNE
H-2A R/B 3.3 04:26:14 10° SE 04:30:09 44° ENE 04:34:10 10° N
Cosmos 1805 3.2 04:32:23 10° N 04:36:20 85° W 04:40:14 10° S
Lacrosse 5 rocket 2.5 04:32:43 10° WNW 04:36:34 27° SW 04:40:26 10° S
CZ-4C R/B 3.3 04:32:11 10° NW 04:39:32 80° NE 04:48:00 10° SE
Cosmos 1943 Rocket 3.1 04:36:28 10° S 04:41:55 51° ESE 04:47:23 10° NE
GP-B 3.3 04:37:53 10° N 04:42:21 79° E 04:46:47 10° S
METEOR-M 4.1 04:41:32 10° NNE 04:46:54 82° WNW 04:52:14 10° SSW
CREW DRAGON DEMO-1 DEB 2.9 04:50:14 10° SW 04:52:57 59° SE 04:55:39 10° ENE
CZ-3B R/B 3.7 04:38:17 10° SW 04:58:21 80° NW 05:02:48 10° NE
COSMO-SKYMED 1 3.4 04:54:34 10° SSE 04:58:49 59° ENE 05:03:06 10° N
ALOS 2.7 04:54:26 10° N 04:58:51 43° WNW 05:03:15 10° SW
Okean 2 4.2 04:56:26 10° S 05:00:27 56° E 05:04:31 10° NNE
Cosmos 2221 Rocket 4.0 04:56:19 10° SSW 05:00:35 45° WNW 05:04:55 10° N
Cosmos 1378 Rocket 3.8 04:56:29 10° S 05:00:54 80° E 05:05:21 10° N
ATLAS 5 CENTAUR R/B 2.6 04:55:42 10° NW 05:01:23 55° WSW 05:07:58 10° SSE
